Starlink 11190

operational
NORAD ID: 60911 Int'l Des: 2024-154 Owner: SPXS Country: US Constellation: starlink
LEOCIRCULAR

About Starlink 11190

Description loading...

Live Position

Loading 3D Globe...

Upcoming Passes

Altitude History

Altitude vs Time

uPlot chart will show altitude changes over time

Two-Line Element Set

1 60911U 24154J 25258.34183079 .00002128 00000-0 22423-4 0 9990
2 60911 53.1572 275.6919 0002322 89.0049 271.1235 15.69720060 60968
Epoch: Sep 15, 2025 • Age: 20 hours

Current Status

Altitude 379.6 km
Velocity 7.68 km/s
Sub-Earth Point -52.87°S, 140.84°E
Launch Date Aug 31, 2024
Age 1 years
Type internet

Technical Details

Classification Payload
Mass 960.00 kg
Dry Mass 910.00 kg
Total Mass 960.00 kg
Length 0.30 m
Diameter 4.10 m
Span 29.00 m
Shape Box + pan
Manufacturer SPXS
Bus Type Starlink V2MD
Phase Status In Orbit
Owner/State SPXS/US

Large Constellations

Loading constellations...